Dewpoint
70 72 72 74 74 74 74 74 73 73 73 73 73 73 73 74 74 74 74 74 74 74 74 74 74 74 74 73 73 72 72 72 72 72 71 70 70 71 71 71 71 71 71 71 71 70 70 70 70 70 70 70 69 69 68 68 68 68 68 68 67 67 67 67 66 66 67 67 67 67 67 67 67 66 65 65 65 65 64 64 65 61 62 65 66
70 71 71 72 74 73 73 73 73 73 73 73 73 73 73 73 73 73 74 74 74 74 74 74 74 73 73 73 73 72 72 72 72 72 72 69 71 71 71 71 70 70 70 70 70 70 70 70 69 69 69 68 69 69 68 68 69 68 68 67 67 67 67 67 67 68 68 67 67 66 66 65 65 65 65 65 66 66 65 65 65 62 63 65 65
71 71 71 71 74 73 73 73 73 73 73 73 73 72 72 72 73 73 73 73 73 74 74 73 73 73 73 73 72 72 72 72 72 72 72 72 70 71 71 71 69 69 69 70 70 69 69 69 69 68 68 68 68 69 68 68 69 69 69 70 68 68 68 68 68 67 67 66 66 66 66 66 66 65 65 64 67 67 65 65 64 64 62 65 65
70 71 71 73 73 73 73 73 73 73 73 73 73 73 72 72 73 73 73 73 73 73 73 73 73 73 73 72 72 72 72 72 71 71 71 71 71 71 71 71 71 71 70 70 69 69 69 70 69 68 68 68 68 68 68 70 70 69 70 70 70 69 68 67 67 67 67 67 67 66 64 63 64 65 66 66 66 66 66 65 65 65 65 64 64
70 70 71 70 70 73 73 73 73 73 73 73 73 73 72 72 72 73 73 73 73 73 73 73 72 72 73 73 73 72 72 71 71 71 70 71 71 71 72 71 72 71 71 71 69 69 69 69 68 68 67 67 67 68 68 70 70 69 70 70 69 68 67 66 66 66 66 67 67 69 64 62 63 65 66 66 66 66 65 64 64 66 66 66 66
70 70 70 69 68 71 73 73 73 73 73 73 73 73 72 72 72 72 73 73 73 73 72 72 72 72 73 72 72 72 72 72 72 71 71 70 70 69 70 72 72 71 71 70 69 68 68 67 66 66 66 67 68 68 69 70 70 70 70 70 69 68 67 68 67 68 67 67 68 67 63 63 62 62 65 66 66 65 65 65 64 64 65 65 65
70 69 70 69 67 70 73 73 73 73 73 73 73 73 72 72 72 73 72 72 72 72 72 72 72 72 72 72 72 71 71 71 71 71 71 71 70 70 70 71 71 71 71 70 68 68 66 66 66 66 67 67 68 68 68 69 69 70 70 69 68 68 67 67 66 67 66 67 67 64 62 62 62 61 64 65 65 65 64 64 63 65 65 64 64
69 69 69 69 69 72 73 73 73 73 73 73 73 72 72 72 73 73 72 72 72 72 72 72 72 72 71 71 71 71 71 70 70 71 71 71 71 71 71 70 70 69 68 68 67 67 66 66 66 66 66 67 68 68 68 69 69 69 69 68 68 68 68 67 67 68 67 65 61 63 63 62 63 61 65 65 65 64 64 63 63 65 65 65 64
69 69 69 70 70 72 73 73 73 73 73 72 72 72 72 72 73 73 72 72 72 72 72 72 71 71 71 71 71 70 70 70 70 71 72 72 71 71 70 70 69 69 68 68 67 67 66 66 66 66 67 67 68 68 68 68 68 68 68 68 67 67 67 67 67 67 65 66 61 62 62 62 63 63 65 64 63 64 63 64 63 63 64 64 64
69 69 69 70 69 73 73 73 73 73 73 72 72 72 72 72 72 73 72 72 72 72 72 71 71 71 71 71 70 70 69 70 71 71 72 71 71 71 70 69 69 68 68 67 67 68 65 66 66 67 67 68 68 68 68 68 68 67 67 67 67 67 67 66 66 67 64 61 60 62 64 67 61 62 64 65 64 64 65 66 65 64 64 64 64
72 70 70 70 71 73 72 73 73 73 72 72 72 72 72 72 72 73 72 72 72 72 71 71 71 71 71 70 70 70 70 71 71 71 71 71 71 70 70 69 69 68 68 67 67 67 69 69 68 68 68 68 69 68 68 67 67 67 67 67 67 66 66 66 67 62 61 58 61 61 62 66 63 63 64 63 63 64 64 64 63 63 64 63 64
68 71 71 70 73 72 72 72 73 73 72 72 72 72 72 72 72 72 72 72 72 72 72 72 71 71 71 70 69 69 70 70 71 71 71 71 70 70 70 69 69 68 68 67 66 67 69 69 69 69 68 69 69 68 67 68 68 68 68 66 66 65 66 65 64 62 59 59 60 61 58 59 61 62 64 63 64 64 64 63 63 63 63 64 64
65 71 71 72 72 72 72 73 72 72 72 72 72 72 72 72 72 72 72 72 72 72 72 72 72 72 71 71 70 71 70 71 71 71 71 71 70 70 69 69 68 68 67 67 66 68 69 69 69 68 68 68 68 66 65 65 66 66 67 66 65 65 66 65 62 60 59 60 60 61 60 63 63 64 65 64 63 63 63 63 63 63 64 64 64
64 70 70 70 71 73 72 73 73 72 72 72 72 73 72 72 72 73 73 72 72 72 72 72 72 71 71 71 71 71 71 71 71 70 71 71 70 70 69 69 68 68 67 66 68 68 69 69 69 68 68 68 67 65 64 64 65 65 66 67 66 65 66 66 65 59 59 59 62 58 60 63 63 64 63 64 64 64 62 63 63 63 63 64 65
65 69 69 69 71 72 73 72 73 73 73 73 72 72 73 73 73 72 72 72 72 72 72 72 72 71 71 71 71 71 71 71 71 70 71 70 70 70 70 69 68 67 67 68 69 69 69 68 68 68 68 68 66 65 64 64 63 66 66 67 66 67 66 62 58 59 59 58 59 58 61 63 66 65 65 64 63 63 63 63 62 62 63 62 63
64 65 67 70 70 71 72 73 72 72 73 73 72 72 72 72 72 72 72 72 72 72 72 72 72 71 71 71 71 70 71 71 71 70 70 70 70 70 70 70 68 68 67 68 69 68 69 68 68 68 68 68 66 65 64 64 65 65 66 66 67 68 67 67 63 59 60 59 59 60 61 63 67 65 64 63 63 62 62 62 62 61 61 62 62
62 64 66 66 69 70 70 71 71 70 71 72 72 72 72 72 72 72 72 73 72 72 72 72 71 71 70 71 71 71 72 71 71 71 70 70 69 70 70 70 69 68 68 68 69 68 68 68 68 68 68 68 66 65 63 64 65 66 67 68 68 68 68 68 64 60 60 60 58 59 62 62 66 65 64 63 62 62 62 62 62 62 62 62 61
61 62 64 65 68 68 71 70 70 71 71 70 70 72 72 72 72 72 72 72 72 72 72 72 71 71 70 70 70 71 71 71 71 70 70 70 71 70 70 70 69 69 69 69 68 68 68 68 68 69 68 67 66 64 64 65 66 67 66 68 68 68 69 69 66 59 60 59 59 59 63 66 66 64 64 63 62 62 61 61 61 61 61 61 62
61 61 65 64 65 68 70 71 71 71 70 70 70 70 71 72 72 72 72 72 72 72 72 71 70 70 70 69 69 70 70 70 70 70 71 71 70 70 70 70 69 69 69 69 68 68 69 68 68 68 67 66 65 66 66 66 67 67 67 68 69 68 69 68 64 58 57 60 61 64 64 66 65 64 64 62 62 61 61 60 61 61 61 61 61
62 62 63 63 66 68 71 69 69 70 70 71 70 70 70 70 70 71 71 70 71 70 70 70 69 70 70 70 70 70 69 69 69 69 70 71 70 69 70 69 69 69 69 68 69 69 68 68 68 68 67 66 66 66 66 66 65 67 67 68 69 69 67 64 63 57 58 59 62 64 65 65 64 64 63 62 62 61 61 60 61 61 61 61 61
63 63 64 63 62 67 68 71 70 70 71 71 71 71 71 70 69 69 69 69 70 70 70 70 70 69 69 69 70 69 69 70 70 67 69 70 70 70 69 69 69 69 68 68 68 68 68 68 68 67 67 66 65 67 67 65 66 66 68 68 69 68 65 62 62 58 58 57 60 62 66 65 64 63 63 62 63 62 61 60 61 61 61 60 60
63 63 63 60 61 64 66 68 70 70 70 71 70 69 71 70 70 69 69 69 69 69 70 70 69 70 69 70 69 69 68 69 70 68 69 68 69 70 70 69 69 68 68 68 68 68 68 68 68 67 67 66 67 59 62 66 68 67 67 68 68 65 64 62 62 58 57 58 64 65 66 65 64 63 63 63 62 62 61 61 61 61 61 60 60
63 63 64 61 61 61 66 66 68 70 71 70 70 69 69 70 69 68 68 68 69 69 67 68 68 69 68 68 69 70 69 67 69 68 68 67 67 70 70 69 69 69 68 68 68 68 67 67 67 67 66 67 60 56 58 56 59 68 68 68 65 63 64 64 61 60 58 62 63 67 66 66 65 64 63 63 63 62 61 60 60 60 60 60 60
63 63 63 62 61 61 60 65 68 68 71 69 70 69 70 71 70 70 69 69 68 70 68 68 67 67 69 69 69 69 68 69 68 68 68 68 67 70 70 69 69 69 69 68 68 68 68 67 66 67 67 59 56 55 57 55 58 60 62 63 62 62 64 65 62 61 60 59 61 67 67 66 65 64 63 63 62 63 61 60 59 60 60 59 59
62 63 61 62 61 61 61 61 67 68 69 70 70 70 69 69 69 70 69 68 68 68 68 67 69 68 69 70 68 67 67 68 68 68 68 67 67 67 68 66 67 66 69 64 64 68 67 62 61 62 58 58 56 56 55 54 59 58 58 59 60 63 63 64 62 61 60 64 64 67 67 66 66 64 63 62 62 63 61 60 60 60 60 60 60
63 60 60 60 60 59 60 61 62 63 69 68 68 69 69 67 68 68 69 68 67 67 68 69 68 69 69 69 68 68 67 67 67 68 66 66 67 64 64 63 64 64 64 61 60 63 63 60 62 59 58 58 59 59 57 56 57 56 55 58 60 62 62 63 62 62 62 65 66 68 67 67 66 65 63 63 61 63 62 60 61 60 60 60 60
60 60 61 60 59 58 58 60 61 63 65 67 68 68 69 68 68 69 67 69 68 67 67 67 69 68 68 69 67 68 66 67 66 67 66 66 67 65 64 71 67 65 67 60 60 61 61 58 60 60 59 58 57 58 58 57 57 53 55 55 57 59 61 61 62 62 61 64 66 68 68 67 67 66 64 63 62 62 62 61 61 61 60 60 59
60 61 60 61 61 57 57 58 62 63 65 63 66 66 69 68 70 67 67 68 67 67 66 69 68 67 68 68 68 68 66 65 65 65 65 67 68 69 68 67 68 69 69 64 60 60 61 59 60 59 58 57 56 57 57 56 56 57 55 56 57 59 61 60 62 63 63 65 64 68 68 68 68 68 65 63 62 62 62 61 61 61 60 60 60
62 62 61 60 59 60 59 60 61 63 65 65 67 68 67 67 67 67 68 68 67 68 67 67 67 67 68 67 68 68 67 65 66 64 66 68 69 68 69 68 69 67 67 66 63 61 60 59 59 59 60 58 56 57 54 55 56 57 54 54 56 55 58 61 62 62 62 63 65 65 68 68 68 68 68 64 63 63 62 62 61 61 61 60 60
59 62 62 60 59 58 58 59 62 62 62 63 65 65 65 65 67 67 67 66 66 68 68 68 68 67 68 68 67 67 67 65 66 66 66 67 66 65 67 68 68 67 69 67 65 63 61 59 58 59 56 56 53 54 54 54 52 54 54 53 53 54 57 58 60 60 60 62 63 65 68 68 68 68 68 67 64 63 63 62 61 61 61 61 61
61 61 60 59 61 57 58 58 58 62 60 58 61 63 64 64 64 65 67 66 67 67 66 67 67 67 68 67 66 67 68 68 68 66 67 67 66 66 66 66 66 66 68 66 66 63 61 60 59 58 58 56 55 51 53 54 53 50 52 51 51 54 55 58 57 57 58 59 61 65 65 69 67 68 68 68 68 67 64 63 62 61 61 61 62
61 61 59 60 61 58 55 58 61 64 61 55 60 59 60 58 62 63 65 64 67 66 66 67 68 66 68 67 67 68 67 68 68 66 66 65 65 66 65 65 65 66 66 66 66 64 61 60 60 60 61 60 59 54 55 53 53 50 49 50 50 53 54 56 55 56 57 58 59 63 65 64 68 67 68 67 68 67 65 64 63 62 62 62 62
60 61 60 62 62 61 60 60 62 65 60 59 57 58 59 55 58 59 63 67 66 65 65 66 68 67 68 67 68 67 67 66 67 66 65 65 65 66 65 65 65 66 67 67 67 65 64 62 61 58 59 59 58 57 54 55 55 53 52 48 51 49 51 53 56 56 56 57 57 57 65 64 63 67 66 68 67 68 67 66 64 64 62 62 61
59 60 63 63 62 62 63 62 62 61 61 59 60 57 56 57 59 58 63 65 63 65 64 66 66 66 67 68 67 66 66 67 65 66 66 65 65 65 64 64 65 66 67 68 67 66 64 62 60 57 57 55 58 60 57 55 52 52 54 53 51 53 53 51 54 55 57 57 56 57 56 63 64 63 64 68 67 67 67 67 65 64 63 62 62
58 61 62 62 63 64 64 64 63 62 62 62 57 59 60 57 55 59 62 63 63 64 65 65 64 66 66 65 65 65 64 66 66 66 66 65 63 64 64 64 65 66 66 67 67 66 64 64 66 57 57 54 55 56 53 55 53 51 55 57 54 48 54 53 54 55 54 57 58 56 58 56 58 64 63 62 67 67 66 67 67 65 64 63 63
61 62 62 63 64 65 65 65 64 64 63 63 62 63 61 61 60 60 62 61 58 59 60 63 64 64 65 66 66 66 66 66 66 66 66 65 64 64 65 66 66 65 66 66 66 65 66 65 63 58 58 54 54 54 55 54 55 56 57 58 58 58 55 53 53 50 52 55 54 56 57 57 59 58 63 64 63 64 66 66 67 67 66 64 63
62 62 63 64 64 65 65 64 63 64 63 62 63 63 61 60 60 60 60 59 56 56 58 58 60 62 63 63 64 65 65 65 66 65 66 65 64 64 68 65 65 65 66 67 66 66 65 63 64 61 62 58 54 53 55 55 54 56 58 59 59 60 58 57 55 55 51 54 54 54 56 56 57 59 60 60 65 64 65 66 66 66 66 66 65
62 63 64 64 62 63 64 64 63 63 63 61 63 61 60 59 58 57 58 57 56 56 56 54 57 56 58 60 61 61 62 62 63 63 64 64 63 63 64 65 64 66 65 65 65 65 65 65 63 65 62 63 62 57 56 56 53 53 58 56 58 60 60 58 58 57 54 53 55 54 55 56 57 57 58 60 58 63 64 65 66 65 66 66 66
63 63 64 63 62 62 63 64 63 63 62 63 63 62 61 59 57 55 54 52 54 57 55 55 55 57 57 60 58 59 59 61 61 61 62 61 61 63 64 64 64 66 65 64 64 64 65 64 64 64 64 65 65 64 58 59 58 55 54 55 54 56 61 63 61 57 56 55 53 54 51 55 56 56 59 59 58 59 65 64 63 63 64 65 65
64 64 64 64 64 63 64 63 62 63 63 63 61 58 57 54 53 53 51 54 55 55 57 54 56 56 55 57 57 59 56 58 58 59 59 58 58 59 61 62 65 64 65 64 64 64 63 64 63 63 62 63 63 63 64 63 65 65 63 64 62 62 57 59 60 58 57 57 56 55 54 52 55 57 56 57 58 58 60 64 64 62 61 64 65
64 65 64 63 64 61 62 61 63 62 61 59 56 54 52 53 53 53 51 50 53 56 56 56 56 56 56 54 55 55 56 57 57 57 59 56 57 57 59 60 60 62 63 62 64 64 64 64 64 64 63 62 63 64 65 64 63 61 61 60 63 63 61 61 58 60 57 55 55 54 55 55 55 56 57 58 57 58 58 60 61 62 62 63 65
63 65 64 64 63 62 62 62 62 61 60 58 56 55 54 51 50 50 49 48 48 50 52 55 56 54 55 54 54 54 56 55 56 58 58 56 55 54 56 59 59 59 63 63 63 64 63 63 63 64 64 63 62 64 64 63 61 59 60 60 60 65 65 62 59 56 59 58 55 57 58 55 53 55 57 57 57 56 56 58 60 59 58 59 64
62 63 64 64 63 61 62 62 61 59 58 59 56 55 54 54 52 49 48 50 53 55 53 54 55 52 56 55 55 56 56 54 56 55 55 55 55 55 56 57 58 59 61 63 64 63 62 63 63 63 62 63 63 64 66 64 61 63 63 61 60 58 63 63 62 61 61 60 61 56 54 54 54 53 54 55 55 55 53 55 56 58 60 59 60
61 61 62 63 62 60 61 62 60 58 58 58 56 57 56 55 55 53 54 53 54 56 56 55 54 54 55 56 56 57 56 55 53 52 53 54 55 53 54 54 56 57 57 58 60 60 62 62 63 63 62 60 61 62 64 65 63 61 57 57 60 58 57 59 58 60 60 62 61 60 61 58 53 53 54 53 52 56 57 54 54 57 60 60 59
60 58 60 61 60 60 60 61 58 57 58 58 58 58 57 57 56 58 57 56 53 52 52 50 53 53 53 54 55 56 55 55 55 54 51 52 53 54 54 54 54 55 55 53 54 56 56 59 61 61 62 62 60 61 62 63 62 64 60 59 58 57 57 60 61 62 61 60 58 60 62 59 59 61 57 52 53 57 57 55 60 60 63 61 61
59 59 60 60 60 59 60 60 58 57 57 58 59 57 54 55 54 51 50 50 50 51 50 50 50 51 49 53 54 55 55 55 54 54 52 52 54 54 54 53 53 53 54 52 53 53 53 53 54 57 62 63 62 61 60 62 62 62 63 63 59 58 59 61 60 58 63 63 61 60 61 60 61 60 59 61 60 59 59 59 62 62 62 61 61
58 59 60 60 60 59 61 60 58 57 58 58 60 55 53 53 53 50 48 49 49 51 52 52 52 51 52 55 54 56 54 56 55 54 55 54 54 54 54 55 53 54 52 54 54 53 52 54 54 53 53 56 58 59 58 60 61 61 62 63 61 61 62 61 59 61 58 63 63 62 63 61 61 61 62 61 61 63 63 62 62 61 61 63 62
58 58 60 60 59 58 61 59 57 57 59 59 58 55 54 54 53 52 49 48 49 52 53 54 54 52 53 54 55 55 55 54 54 53 54 54 55 54 54 54 51 49 48 48 50 51 54 54 55 56 55 55 55 54 56 55 56 57 58 59 61 61 61 61 61 59 58 57 60 63 64 64 63 63 62 61 62 63 64 64 61 62 64 60 61
57 58 60 60 59 58 61 59 57 57 59 59 57 55 55 54 53 52 49 49 51 52 50 52 51 53 53 53 53 52 53 54 53 52 53 51 53 51 50 50 49 48 43 43 47 48 51 53 54 54 55 55 54 54 54 52 53 52 54 56 55 58 60 60 60 60 58 56 58 59 60 63 64 64 64 64 63 63 62 62 62 61 64 62 62
58 58 60 59 58 57 60 58 56 56 59 58 56 55 55 54 53 53 50 49 51 48 49 50 51 52 52 53 52 51 51 52 52 51 51 49 49 49 48 48 49 46 45 46 49 51 52 52 53 53 53 53 54 55 54 52 52 53 53 52 51 51 52 56 57 55 54 57 55 57 58 59 59 62 64 64 64 63 63 63 61 59 59 60 61
59 58 60 59 58 58 60 57 56 55 58 58 56 55 55 54 52 52 51 52 52 49 49 51 51 52 52 52 50 51 50 50 50 51 51 50 52 51 50 48 50 50 49 48 50 48 51 52 52 52 52 52 51 52 52 52 52 52 50 51 49 49 52 50 50 50 51 51 51 51 54 57 56 58 63 62 61 62 63 62 61 60 60 61 60